Time,TemperatureF,DewpointF,PressureIn,WindDirection,WindDirectionDegrees,WindSpeedMPH,WindSpeedGustMPH,Humidity,HourlyPrecipIn,Conditions,Clouds,dailyrainin,SoftwareType,DateUTC
2013-05-08 00:02:00,39.4,38.3,30.35,SSE,164,0.0,0.0,96,0.07,,,0.25,meteohub,2013-05-08 07:02:00,
2013-05-08 00:07:00,39.4,38.3,30.35,South,171,1.0,1.0,96,0.06,,,0.25,meteohub,2013-05-08 07:07:00,
2013-05-08 00:12:00,39.2,38.1,30.35,SSE,167,0.0,1.0,96,0.07,,,0.26,meteohub,2013-05-08 07:12:00,
2013-05-08 00:17:00,39.0,37.9,30.35,SSE,163,0.0,1.0,96,0.07,,,0.27,meteohub,2013-05-08 07:17:00,
2013-05-08 00:22:00,39.0,37.8,30.35,South,186,0.0,1.0,95,0.07,,,0.28,meteohub,2013-05-08 07:22:00,
2013-05-08 00:27:00,39.0,37.9,30.35,South,186,0.0,1.0,96,0.07,,,0.29,meteohub,2013-05-08 07:27:00,
2013-05-08 00:32:00,39.0,37.9,30.35,South,175,0.0,1.0,96,0.07,,,0.29,meteohub,2013-05-08 07:32:00,
2013-05-08 00:37:00,39.0,37.9,30.35,South,174,0.0,1.0,96,0.07,,,0.30,meteohub,2013-05-08 07:37:00,
2013-05-08 00:42:00,39.0,37.9,30.35,South,173,0.0,0.0,96,0.06,,,0.30,meteohub,2013-05-08 07:42:00,
2013-05-08 00:47:00,39.0,37.9,30.35,South,174,0.0,0.0,96,0.07,,,0.31,meteohub,2013-05-08 07:47:00,
2013-05-08 00:52:00,39.0,37.9,30.35,South,173,0.0,0.0,96,0.08,,,0.32,meteohub,2013-05-08 07:52:00,
2013-05-08 00:57:00,39.0,37.9,30.35,South,173,0.0,0.0,96,0.08,,,0.32,meteohub,2013-05-08 07:57:00,
2013-05-08 01:02:00,39.0,37.9,30.35,South,173,0.0,0.0,96,0.07,,,0.32,meteohub,2013-05-08 08:02:00,
2013-05-08 01:07:00,39.0,37.9,30.35,South,173,0.0,0.0,96,0.07,,,0.32,meteohub,2013-05-08 08:07:00,
2013-05-08 01:12:00,39.0,37.9,30.35,South,173,0.0,0.0,96,0.06,,,0.32,meteohub,2013-05-08 08:12:00,
2013-05-08 01:17:00,39.0,37.9,30.35,South,173,0.0,0.0,96,0.05,,,0.32,meteohub,2013-05-08 08:17:00,
2013-05-08 01:22:00,39.0,37.9,30.35,South,174,0.0,0.0,96,0.04,,,0.32,meteohub,2013-05-08 08:22:00,
2013-05-08 01:27:00,39.0,37.9,30.35,South,173,0.0,0.0,96,0.03,,,0.32,meteohub,2013-05-08 08:27:00,
2013-05-08 01:32:00,39.0,37.9,30.35,South,174,0.0,0.0,96,0.04,,,0.33,meteohub,2013-05-08 08:32:00,
2013-05-08 01:37:00,39.0,37.9,30.35,South,174,0.0,0.0,96,0.03,,,0.33,meteohub,2013-05-08 08:37:00,
2013-05-08 01:42:00,38.8,37.8,30.35,South,175,0.0,0.0,96,0.02,,,0.33,meteohub,2013-05-08 08:42:00,
2013-05-08 01:47:00,38.8,37.8,30.34,South,175,0.0,1.0,96,0.01,,,0.33,meteohub,2013-05-08 08:47:00,
2013-05-08 01:52:00,38.8,37.8,30.34,SSE,160,0.0,1.0,96,0.01,,,0.33,meteohub,2013-05-08 08:52:00,
2013-05-08 01:57:00,38.7,37.6,30.34,SSE,167,0.0,0.0,96,0.01,,,0.33,meteohub,2013-05-08 08:57:00,
2013-05-08 02:02:00,38.7,37.6,30.35,SSE,156,0.0,1.0,96,0.01,,,0.33,meteohub,2013-05-08 09:02:00,
2013-05-08 02:07:00,38.7,37.6,30.34,SSE,161,0.0,1.0,96,0.01,,,0.33,meteohub,2013-05-08 09:07:00,
2013-05-08 02:12:00,38.8,37.8,30.34,SSE,161,0.0,1.0,96,0.01,,,0.33,meteohub,2013-05-08 09:12:00,
2013-05-08 02:17:00,38.7,37.6,30.35,SSE,161,0.0,1.0,96,0.01,,,0.33,meteohub,2013-05-08 09:17:00,
2013-05-08 02:22:00,38.7,37.6,30.35,SSE,161,0.0,0.0,96,0.01,,,0.33,meteohub,2013-05-08 09:22:00,
2013-05-08 02:27:00,38.7,37.6,30.35,SSE,162,0.0,0.0,96,0.01,,,0.33,meteohub,2013-05-08 09:27:00,
2013-05-08 02:32:00,38.7,37.6,30.35,SSE,161,0.0,0.0,96,0.00,,,0.33,meteohub,2013-05-08 09:32:00,
2013-05-08 02:37:00,38.7,37.6,30.34,SSE,161,0.0,0.0,96,0.00,,,0.33,meteohub,2013-05-08 09:37:00,
2013-05-08 02:42:00,38.7,37.6,30.34,SSE,161,0.0,0.0,96,0.00,,,0.33,meteohub,2013-05-08 09:42:00,
2013-05-08 02:47:00,38.7,37.6,30.34,SSE,162,0.0,0.0,96,0.00,,,0.33,meteohub,2013-05-08 09:47:00,
2013-05-08 02:52:00,38.7,37.6,30.34,SSE,161,0.0,0.0,96,0.00,,,0.33,meteohub,2013-05-08 09:52:00,
2013-05-08 02:57:00,38.5,37.4,30.34,SSE,162,0.0,0.0,96,0.00,,,0.33,meteohub,2013-05-08 09:57:00,
2013-05-08 03:02:00,38.5,37.4,30.34,SSE,162,0.0,0.0,96,0.00,,,0.33,meteohub,2013-05-08 10:02:00,
2013-05-08 03:07:00,38.5,37.4,30.34,SSE,161,0.0,0.0,96,0.00,,,0.33,meteohub,2013-05-08 10:07:00,
2013-05-08 03:12:00,38.7,37.6,30.34,SSE,161,0.0,0.0,96,0.00,,,0.33,meteohub,2013-05-08 10:12:00,
2013-05-08 03:17:00,38.7,37.6,30.34,SSE,162,0.0,0.0,96,0.00,,,0.33,meteohub,2013-05-08 10:17:00,
2013-05-08 03:22:00,38.7,37.9,30.34,SSE,161,0.0,0.0,97,0.00,,,0.33,meteohub,2013-05-08 10:22:00,
2013-05-08 03:27:00,38.7,37.6,30.34,SSE,161,0.0,0.0,96,0.00,,,0.33,meteohub,2013-05-08 10:27:00,
2013-05-08 03:32:00,38.7,37.6,30.34,SSE,161,0.0,0.0,96,0.00,,,0.33,meteohub,2013-05-08 10:32:00,
2013-05-08 03:37:00,38.7,37.6,30.34,SSE,162,0.0,0.0,96,0.00,,,0.33,meteohub,2013-05-08 10:37:00,
2013-05-08 03:42:00,38.7,37.6,30.35,SSE,162,0.0,0.0,96,0.00,,,0.33,meteohub,2013-05-08 10:42:00,
2013-05-08 03:47:00,38.7,37.6,30.35,SSE,162,0.0,0.0,96,0.00,,,0.33,meteohub,2013-05-08 10:47:00,
2013-05-08 03:52:00,38.5,37.4,30.35,SE,145,0.0,0.0,96,0.00,,,0.33,meteohub,2013-05-08 10:52:00,
2013-05-08 03:57:00,38.5,37.8,30.35,SE,145,0.0,0.0,97,0.01,,,0.34,meteohub,2013-05-08 10:57:00,
2013-05-08 04:02:00,38.7,37.6,30.35,SE,145,0.0,1.0,96,0.01,,,0.34,meteohub,2013-05-08 11:02:00,
2013-05-08 04:07:00,38.5,37.4,30.35,SE,145,0.0,1.0,96,0.01,,,0.34,meteohub,2013-05-08 11:07:00,
2013-05-08 04:12:00,38.7,37.9,30.35,SE,145,0.0,1.0,97,0.01,,,0.34,meteohub,2013-05-08 11:12:00,
2013-05-08 04:17:00,38.5,37.4,30.35,SE,145,0.0,0.0,96,0.01,,,0.34,meteohub,2013-05-08 11:17:00,
2013-05-08 04:22:00,38.5,37.4,30.35,SE,145,0.0,0.0,96,0.01,,,0.34,meteohub,2013-05-08 11:22:00,
2013-05-08 04:27:00,38.5,37.4,30.35,SE,145,0.0,0.0,96,0.01,,,0.34,meteohub,2013-05-08 11:27:00,
2013-05-08 04:32:00,38.5,37.8,30.35,SE,145,0.0,0.0,97,0.01,,,0.34,meteohub,2013-05-08 11:32:00,
2013-05-08 04:37:00,38.5,37.8,30.35,SSE,148,0.0,0.0,97,0.01,,,0.34,meteohub,2013-05-08 11:37:00,
2013-05-08 04:42:00,38.5,37.8,30.35,SSE,148,0.0,0.0,97,0.01,,,0.34,meteohub,2013-05-08 11:42:00,
2013-05-08 04:47:00,38.5,37.4,30.35,SSE,148,0.0,0.0,96,0.01,,,0.34,meteohub,2013-05-08 11:47:00,
2013-05-08 04:52:00,38.5,37.8,30.35,SSE,148,0.0,0.0,97,0.00,,,0.34,meteohub,2013-05-08 11:52:00,
2013-05-08 04:57:00,38.5,37.8,30.35,SSE,148,0.0,0.0,97,0.00,,,0.34,meteohub,2013-05-08 11:57:00,
2013-05-08 05:02:00,38.7,37.9,30.35,SSE,148,0.0,0.0,97,0.00,,,0.34,meteohub,2013-05-08 12:02:00,
2013-05-08 05:07:00,38.7,37.9,30.35,SSE,148,0.0,0.0,97,0.00,,,0.34,meteohub,2013-05-08 12:07:00,
2013-05-08 05:12:00,38.7,37.9,30.35,SSE,150,0.0,0.0,97,0.00,,,0.34,meteohub,2013-05-08 12:12:00,
2013-05-08 05:17:00,38.8,38.1,30.35,SSE,149,0.0,0.0,97,0.00,,,0.34,meteohub,2013-05-08 12:17:00,
2013-05-08 05:22:00,38.8,38.1,30.35,SSE,149,0.0,0.0,97,0.00,,,0.34,meteohub,2013-05-08 12:22:00,
2013-05-08 05:27:00,38.8,38.1,30.35,SSE,150,0.0,0.0,97,0.00,,,0.34,meteohub,2013-05-08 12:27:00,
2013-05-08 05:32:00,38.8,38.1,30.35,SSE,161,0.0,0.0,97,0.00,,,0.34,meteohub,2013-05-08 12:32:00,
2013-05-08 05:37:00,38.8,38.1,30.35,SSE,156,0.0,1.0,97,0.00,,,0.34,meteohub,2013-05-08 12:37:00,
2013-05-08 05:42:00,38.8,38.1,30.36,SSE,158,0.0,1.0,97,0.00,,,0.34,meteohub,2013-05-08 12:42:00,
2013-05-08 05:47:00,38.8,38.1,30.36,SSE,157,0.0,1.0,97,0.00,,,0.34,meteohub,2013-05-08 12:47:00,
2013-05-08 05:52:00,38.8,37.8,30.36,SSE,157,0.0,1.0,96,0.00,,,0.34,meteohub,2013-05-08 12:52:00,
2013-05-08 05:57:00,38.8,38.1,30.36,South,169,0.0,1.0,97,0.00,,,0.34,meteohub,2013-05-08 12:57:00,
2013-05-08 06:02:00,38.8,37.8,30.36,SSE,158,0.0,1.0,96,0.00,,,0.34,meteohub,2013-05-08 13:02:00,
2013-05-08 06:07:00,38.7,37.6,30.36,SSE,157,0.0,1.0,96,0.00,,,0.34,meteohub,2013-05-08 13:07:00,
2013-05-08 06:12:00,38.8,38.1,30.37,SSE,157,0.0,1.0,97,0.00,,,0.34,meteohub,2013-05-08 13:12:00,
2013-05-08 06:17:00,38.8,38.1,30.37,SSE,157,0.0,0.0,97,0.00,,,0.34,meteohub,2013-05-08 13:17:00,
2013-05-08 06:22:00,38.7,37.9,30.36,SE,144,0.0,0.0,97,0.00,,,0.34,meteohub,2013-05-08 13:22:00,
2013-05-08 06:27:00,38.7,37.9,30.37,SSE,153,0.0,1.0,97,0.00,,,0.34,meteohub,2013-05-08 13:27:00,
2013-05-08 06:32:00,38.7,37.9,30.37,SSE,153,0.0,1.0,97,0.00,,,0.34,meteohub,2013-05-08 13:32:00,
2013-05-08 06:37:00,38.7,37.9,30.37,South,169,0.0,1.0,97,0.00,,,0.34,meteohub,2013-05-08 13:37:00,
2013-05-08 06:42:00,38.7,37.9,30.38,SSE,155,0.0,1.0,97,0.00,,,0.34,meteohub,2013-05-08 13:42:00,
2013-05-08 06:47:00,38.8,38.1,30.38,SSE,150,0.0,1.0,97,0.00,,,0.34,meteohub,2013-05-08 13:47:00,
2013-05-08 06:52:00,38.8,38.1,30.38,SSE,151,0.0,1.0,97,0.00,,,0.34,meteohub,2013-05-08 13:52:00,
2013-05-08 06:57:00,39.0,38.3,30.38,SSE,151,0.0,1.0,97,0.00,,,0.34,meteohub,2013-05-08 13:57:00,
2013-05-08 07:02:00,39.0,38.3,30.38,SSE,167,0.0,0.0,97,0.00,,,0.34,meteohub,2013-05-08 14:02:00,
2013-05-08 07:07:00,39.2,38.5,30.38,SSE,167,0.0,1.0,97,0.00,,,0.34,meteohub,2013-05-08 14:07:00,
2013-05-08 07:12:00,39.4,38.7,30.38,SSE,167,0.0,1.0,97,0.00,,,0.34,meteohub,2013-05-08 14:12:00,
2013-05-08 07:17:00,39.6,38.8,30.39,SSE,165,0.0,1.0,97,0.00,,,0.34,meteohub,2013-05-08 14:17:00,
2013-05-08 07:22:00,39.7,39.0,30.39,SSE,165,0.0,0.0,97,0.00,,,0.34,meteohub,2013-05-08 14:22:00,
2013-05-08 07:27:00,39.7,39.0,30.39,South,188,0.0,1.0,97,0.00,,,0.34,meteohub,2013-05-08 14:27:00,
2013-05-08 07:32:00,39.9,39.2,30.39,South,188,0.0,1.0,97,0.00,,,0.34,meteohub,2013-05-08 14:32:00,
2013-05-08 07:37:00,40.1,39.4,30.39,South,188,0.0,1.0,97,0.00,,,0.34,meteohub,2013-05-08 14:37:00,
2013-05-08 07:42:00,40.5,39.7,30.39,SSE,148,0.0,1.0,97,0.00,,,0.34,meteohub,2013-05-08 14:42:00,
2013-05-08 07:47:00,41.5,40.8,30.39,South,174,0.0,0.0,97,0.00,,,0.34,meteohub,2013-05-08 14:47:00,
2013-05-08 07:52:00,41.7,40.6,30.39,SE,146,0.0,1.0,96,0.00,,,0.34,meteohub,2013-05-08 14:52:00,
2013-05-08 07:57:00,42.1,40.8,30.39,SE,146,0.0,2.0,95,0.00,,,0.34,meteohub,2013-05-08 14:57:00,
2013-05-08 08:02:00,42.3,40.6,30.39,SSE,150,0.0,2.0,94,0.00,,,0.34,meteohub,2013-05-08 15:02:00,
2013-05-08 08:07:00,42.4,40.6,30.39,SE,145,0.0,1.0,93,0.00,,,0.34,meteohub,2013-05-08 15:07:00,
2013-05-08 08:12:00,42.6,40.5,30.39,SE,145,0.0,1.0,92,0.00,,,0.34,meteohub,2013-05-08 15:12:00,
2013-05-08 08:17:00,43.0,40.8,30.39,SE,145,0.0,1.0,92,0.00,,,0.34,meteohub,2013-05-08 15:17:00,
2013-05-08 08:22:00,43.5,40.8,30.39,NW,310,2.0,2.0,90,0.00,,,0.34,meteohub,2013-05-08 15:22:00,
2013-05-08 08:27:00,43.9,41.2,30.38,NW,324,2.0,2.0,90,0.00,,,0.34,meteohub,2013-05-08 15:27:00,
2013-05-08 08:32:00,43.3,39.7,30.38,NW,325,1.0,3.0,87,0.00,,,0.34,meteohub,2013-05-08 15:32:00,
2013-05-08 08:37:00,43.3,40.1,30.38,NW,324,2.0,3.0,88,0.00,,,0.34,meteohub,2013-05-08 15:37:00,
2013-05-08 08:42:00,43.2,39.6,30.39,NW,321,2.0,3.0,87,0.00,,,0.34,meteohub,2013-05-08 15:42:00,
2013-05-08 08:47:00,43.0,39.7,30.39,NW,314,0.0,3.0,88,0.00,,,0.34,meteohub,2013-05-08 15:47:00,
2013-05-08 08:52:00,43.2,39.6,30.39,NW,317,2.0,3.0,87,0.00,,,0.34,meteohub,2013-05-08 15:52:00,
2013-05-08 08:57:00,43.2,39.6,30.39,NNE,15,3.0,3.0,87,0.00,,,0.34,meteohub,2013-05-08 15:57:00,
2013-05-08 09:02:00,43.2,39.6,30.39,NNW,340,2.0,3.0,87,0.00,,,0.34,meteohub,2013-05-08 16:02:00,
2013-05-08 09:07:00,43.2,39.6,30.39,NNW,338,0.0,3.0,87,0.00,,,0.34,meteohub,2013-05-08 16:07:00,
2013-05-08 09:12:00,43.2,39.2,30.39,NNE,19,2.0,3.0,86,0.00,,,0.34,meteohub,2013-05-08 16:12:00,
2013-05-08 09:17:00,43.0,39.7,30.39,NNE,27,3.0,3.0,88,0.00,,,0.34,meteohub,2013-05-08 16:17:00,
2013-05-08 09:22:00,42.8,39.6,30.39,NNE,31,2.0,5.0,88,0.01,,,0.35,meteohub,2013-05-08 16:22:00,
2013-05-08 09:27:00,42.8,39.7,30.39,NNE,15,2.0,5.0,89,0.01,,,0.35,meteohub,2013-05-08 16:27:00,
2013-05-08 09:32:00,43.2,39.9,30.39,NNW,347,1.0,5.0,88,0.01,,,0.35,meteohub,2013-05-08 16:32:00,
2013-05-08 09:37:00,43.2,39.9,30.39,North,351,0.0,4.0,88,0.01,,,0.35,meteohub,2013-05-08 16:37:00,
2013-05-08 09:42:00,43.5,40.5,30.39,NNE,19,2.0,4.0,89,0.01,,,0.35,meteohub,2013-05-08 16:42:00,
2013-05-08 09:47:00,43.5,39.6,30.39,NNE,20,1.0,2.0,86,0.01,,,0.35,meteohub,2013-05-08 16:47:00,
2013-05-08 09:52:00,43.5,39.6,30.39,NNE,29,2.0,3.0,86,0.01,,,0.35,meteohub,2013-05-08 16:52:00,
2013-05-08 09:57:00,43.5,39.9,30.39,NNE,32,2.0,3.0,87,0.01,,,0.35,meteohub,2013-05-08 16:57:00,
2013-05-08 10:02:00,43.7,39.7,30.39,NW,321,2.0,3.0,86,0.01,,,0.35,meteohub,2013-05-08 17:02:00,
2013-05-08 10:07:00,43.5,39.9,30.40,NNE,15,1.0,3.0,87,0.01,,,0.35,meteohub,2013-05-08 17:07:00,
2013-05-08 10:12:00,43.5,39.6,30.40,NNE,20,2.0,3.0,86,0.01,,,0.35,meteohub,2013-05-08 17:12:00,
2013-05-08 10:17:00,43.7,39.7,30.40,NNW,331,3.0,3.0,86,0.00,,,0.35,meteohub,2013-05-08 17:17:00,
2013-05-08 10:22:00,44.1,39.9,30.40,NW,318,3.0,3.0,85,0.00,,,0.35,meteohub,2013-05-08 17:22:00,
2013-05-08 10:27:00,44.1,39.2,30.40,NNW,333,3.0,4.0,83,0.00,,,0.35,meteohub,2013-05-08 17:27:00,
2013-05-08 10:32:00,44.1,39.6,30.40,NNW,327,4.0,4.0,84,0.00,,,0.35,meteohub,2013-05-08 17:32:00,
2013-05-08 10:37:00,43.9,39.9,30.40,NNW,327,4.0,5.0,86,0.00,,,0.35,meteohub,2013-05-08 17:37:00,
2013-05-08 10:42:00,43.9,39.7,30.40,NNE,26,2.0,5.0,85,0.00,,,0.35,meteohub,2013-05-08 17:42:00,
2013-05-08 10:47:00,43.9,39.4,30.40,NE,35,3.0,4.0,84,0.00,,,0.35,meteohub,2013-05-08 17:47:00,
2013-05-08 10:52:00,43.9,39.4,30.40,NE,46,4.0,5.0,84,0.00,,,0.35,meteohub,2013-05-08 17:52:00,
2013-05-08 10:57:00,43.9,39.4,30.41,NE,39,1.0,5.0,84,0.00,,,0.35,meteohub,2013-05-08 17:57:00,
2013-05-08 11:02:00,43.9,39.4,30.41,NNE,33,2.0,5.0,84,0.00,,,0.35,meteohub,2013-05-08 18:02:00,
2013-05-08 11:07:00,44.1,39.6,30.41,NE,40,3.0,5.0,84,0.00,,,0.35,meteohub,2013-05-08 18:07:00,
2013-05-08 11:12:00,44.1,39.6,30.41,NW,321,3.0,5.0,84,0.00,,,0.35,meteohub,2013-05-08 18:12:00,
2013-05-08 11:17:00,44.2,39.7,30.40,NNW,331,4.0,4.0,84,0.00,,,0.35,meteohub,2013-05-08 18:17:00,
2013-05-08 11:22:00,44.2,40.1,30.41,NNW,327,4.0,4.0,85,0.00,,,0.35,meteohub,2013-05-08 18:22:00,
2013-05-08 11:27:00,44.2,39.7,30.41,NNW,344,3.0,4.0,84,0.00,,,0.35,meteohub,2013-05-08 18:27:00,
2013-05-08 11:32:00,44.4,39.9,30.41,NNW,337,3.0,4.0,84,0.00,,,0.35,meteohub,2013-05-08 18:32:00,
2013-05-08 11:37:00,44.6,40.5,30.41,NW,322,3.0,4.0,85,0.00,,,0.35,meteohub,2013-05-08 18:37:00,
2013-05-08 11:42:00,44.8,39.9,30.41,NNE,12,2.0,5.0,83,0.00,,,0.35,meteohub,2013-05-08 18:42:00,
2013-05-08 11:47:00,44.8,39.6,30.41,NNW,331,2.0,5.0,82,0.00,,,0.35,meteohub,2013-05-08 18:47:00,
2013-05-08 11:52:00,45.0,39.7,30.40,NW,319,3.0,5.0,82,0.00,,,0.35,meteohub,2013-05-08 18:52:00,
2013-05-08 11:58:00,45.0,39.7,30.40,NW,320,2.0,5.0,82,0.00,,,0.35,meteohub,2013-05-08 18:58:00,
2013-05-08 12:03:00,45.1,40.3,30.40,NNW,333,2.0,4.0,83,0.00,,,0.35,meteohub,2013-05-08 19:03:00,
2013-05-08 12:08:00,45.1,40.3,30.40,NW,321,2.0,4.0,83,0.00,,,0.35,meteohub,2013-05-08 19:08:00,
2013-05-08 12:13:00,45.3,40.5,30.40,NNE,28,2.0,4.0,83,0.00,,,0.35,meteohub,2013-05-08 19:13:00,
2013-05-08 12:18:00,45.5,40.6,30.40,NNW,328,1.0,4.0,83,0.00,,,0.35,meteohub,2013-05-08 19:18:00,
2013-05-08 12:23:00,45.3,39.9,30.39,NW,324,2.0,4.0,81,0.00,,,0.35,meteohub,2013-05-08 19:23:00,
2013-05-08 12:28:00,45.5,40.6,30.39,NW,321,2.0,4.0,83,0.00,,,0.35,meteohub,2013-05-08 19:28:00,
2013-05-08 12:33:00,45.5,40.3,30.39,NNW,333,3.0,4.0,82,0.00,,,0.35,meteohub,2013-05-08 19:33:00,
2013-05-08 12:38:00,45.5,40.3,30.39,NNW,346,2.0,4.0,82,0.00,,,0.35,meteohub,2013-05-08 19:38:00,
2013-05-08 12:43:00,45.7,40.1,30.39,NNW,344,3.0,3.0,81,0.00,,,0.35,meteohub,2013-05-08 19:43:00,
2013-05-08 12:48:00,45.5,40.6,30.39,NNE,32,2.0,4.0,83,0.00,,,0.35,meteohub,2013-05-08 19:48:00,
2013-05-08 12:53:00,45.7,40.5,30.39,NW,321,0.0,4.0,82,0.00,,,0.35,meteohub,2013-05-08 19:53:00,
2013-05-08 12:58:00,45.9,40.3,30.39,NNE,28,3.0,4.0,81,0.00,,,0.35,meteohub,2013-05-08 19:58:00,
2013-05-08 13:03:00,46.0,40.5,30.39,NNE,15,4.0,4.0,81,0.00,,,0.35,meteohub,2013-05-08 20:03:00,
2013-05-08 13:08:00,46.2,40.5,30.39,NNE,28,4.0,4.0,80,0.00,,,0.35,meteohub,2013-05-08 20:08:00,
2013-05-08 13:13:00,46.2,40.1,30.38,NNE,31,3.0,4.0,79,0.00,,,0.35,meteohub,2013-05-08 20:13:00,
2013-05-08 13:18:00,46.2,40.5,30.39,North,350,5.0,5.0,80,0.00,,,0.35,meteohub,2013-05-08 20:18:00,
2013-05-08 13:23:00,46.2,40.1,30.39,NNE,30,5.0,6.0,79,0.00,,,0.35,meteohub,2013-05-08 20:23:00,
2013-05-08 13:28:00,46.4,40.6,30.39,NNE,32,6.0,6.0,80,0.00,,,0.35,meteohub,2013-05-08 20:28:00,
2013-05-08 13:33:00,46.2,40.5,30.39,NNE,31,5.0,6.0,80,0.00,,,0.35,meteohub,2013-05-08 20:33:00,
2013-05-08 13:38:00,46.6,39.7,30.39,NNW,348,4.0,6.0,77,0.00,,,0.35,meteohub,2013-05-08 20:38:00,
2013-05-08 13:43:00,46.8,40.6,30.38,North,350,3.0,6.0,79,0.00,,,0.35,meteohub,2013-05-08 20:43:00,
2013-05-08 13:48:00,46.9,40.8,30.38,NNW,337,3.0,6.0,79,0.00,,,0.35,meteohub,2013-05-08 20:48:00,
2013-05-08 13:53:00,47.1,40.6,30.38,NW,321,3.0,5.0,78,0.00,,,0.35,meteohub,2013-05-08 20:53:00,
2013-05-08 13:58:00,47.1,41.4,30.38,NNW,329,3.0,5.0,80,0.00,,,0.35,meteohub,2013-05-08 20:58:00,
2013-05-08 14:03:00,47.1,40.6,30.38,NNW,331,1.0,4.0,78,0.00,,,0.35,meteohub,2013-05-08 21:03:00,
2013-05-08 14:08:00,47.5,41.4,30.38,NW,322,3.0,4.0,79,0.00,,,0.35,meteohub,2013-05-08 21:08:00,
2013-05-08 14:13:00,47.5,41.4,30.38,NW,319,4.0,4.0,79,0.00,,,0.35,meteohub,2013-05-08 21:13:00,
2013-05-08 14:18:00,47.5,41.0,30.37,NW,323,4.0,5.0,78,0.00,,,0.35,meteohub,2013-05-08 21:18:00,
2013-05-08 14:23:00,47.8,41.4,30.37,NNW,327,2.0,6.0,78,0.00,,,0.35,meteohub,2013-05-08 21:23:00,
2013-05-08 14:28:00,48.6,42.1,30.37,NNW,333,0.0,6.0,78,0.00,,,0.35,meteohub,2013-05-08 21:28:00,
2013-05-08 14:33:00,49.5,42.3,30.37,NNW,344,0.0,6.0,76,0.00,,,0.35,meteohub,2013-05-08 21:33:00,
2013-05-08 14:38:00,50.9,43.3,30.37,NNW,342,0.0,4.0,75,0.00,,,0.35,meteohub,2013-05-08 21:38:00,
2013-05-08 14:43:00,52.0,43.2,30.37,SW,217,0.0,2.0,72,0.00,,,0.35,meteohub,2013-05-08 21:43:00,
2013-05-08 14:48:00,52.2,43.0,30.37,NW,315,2.0,2.0,71,0.00,,,0.35,meteohub,2013-05-08 21:48:00,
2013-05-08 14:53:00,51.4,42.8,30.37,NNW,331,4.0,4.0,72,0.00,,,0.35,meteohub,2013-05-08 21:53:00,
2013-05-08 14:58:00,50.4,42.1,30.37,NNW,327,5.0,5.0,73,0.00,,,0.35,meteohub,2013-05-08 21:58:00,
2013-05-08 15:03:00,49.6,42.1,30.37,NNW,333,5.0,6.0,75,0.00,,,0.35,meteohub,2013-05-08 22:03:00,
2013-05-08 15:08:00,49.3,40.6,30.37,NNW,337,5.0,6.0,72,0.00,,,0.35,meteohub,2013-05-08 22:08:00,
2013-05-08 15:13:00,49.1,40.8,30.36,NNE,27,5.0,6.0,73,0.00,,,0.35,meteohub,2013-05-08 22:13:00,
2013-05-08 15:18:00,48.7,41.2,30.36,NNE,32,6.0,6.0,75,0.00,,,0.35,meteohub,2013-05-08 22:18:00,
2013-05-08 15:23:00,48.7,41.5,30.36,NNE,12,5.0,6.0,76,0.00,,,0.35,meteohub,2013-05-08 22:23:00,
2013-05-08 15:28:00,48.7,41.9,30.36,NNE,32,6.0,6.0,77,0.00,,,0.35,meteohub,2013-05-08 22:28:00,
2013-05-08 15:33:00,48.7,42.3,30.36,NNE,30,6.0,6.0,78,0.00,,,0.35,meteohub,2013-05-08 22:33:00,
2013-05-08 15:38:00,48.6,42.6,30.36,NNW,340,8.0,8.0,80,0.00,,,0.35,meteohub,2013-05-08 22:38:00,
2013-05-08 15:43:00,48.6,41.4,30.36,NNE,26,9.0,9.0,76,0.00,,,0.35,meteohub,2013-05-08 22:43:00,
2013-05-08 15:48:00,48.6,42.3,30.35,NNE,12,7.0,9.0,79,0.00,,,0.35,meteohub,2013-05-08 22:48:00,
2013-05-08 15:53:00,48.6,43.0,30.35,NNE,17,7.0,9.0,81,0.00,,,0.35,meteohub,2013-05-08 22:53:00,
2013-05-08 15:59:00,48.7,42.4,30.35,NNE,29,7.0,9.0,79,0.00,,,0.35,meteohub,2013-05-08 22:59:00,
2013-05-08 16:04:00,48.7,42.4,30.35,NNE,31,6.0,8.0,79,0.00,,,0.35,meteohub,2013-05-08 23:04:00,
2013-05-08 16:09:00,48.7,42.4,30.35,NNW,340,6.0,8.0,79,0.00,,,0.35,meteohub,2013-05-08 23:09:00,
2013-05-08 16:14:00,48.9,42.4,30.35,NE,36,6.0,7.0,78,0.00,,,0.35,meteohub,2013-05-08 23:14:00,
2013-05-08 16:19:00,49.1,43.2,30.35,NNW,340,6.0,7.0,80,0.00,,,0.35,meteohub,2013-05-08 23:19:00,
2013-05-08 16:24:00,49.3,43.0,30.35,NNW,336,6.0,7.0,79,0.00,,,0.35,meteohub,2013-05-08 23:24:00,
2013-05-08 16:29:00,49.3,43.3,30.34,NNW,338,6.0,8.0,80,0.00,,,0.35,meteohub,2013-05-08 23:29:00,
2013-05-08 16:34:00,49.3,43.0,30.34,NNE,15,7.0,8.0,79,0.00,,,0.35,meteohub,2013-05-08 23:34:00,
2013-05-08 16:39:00,49.3,44.1,30.34,NNW,347,4.0,8.0,82,0.00,,,0.35,meteohub,2013-05-08 23:39:00,
2013-05-08 16:44:00,49.3,43.0,30.34,NNE,13,6.0,7.0,79,0.00,,,0.35,meteohub,2013-05-08 23:44:00,
2013-05-08 16:49:00,49.5,43.5,30.35,NNE,22,6.0,7.0,80,0.00,,,0.35,meteohub,2013-05-08 23:49:00,
2013-05-08 16:54:00,49.5,42.8,30.34,North,351,6.0,7.0,78,0.00,,,0.35,meteohub,2013-05-08 23:54:00,
2013-05-08 16:59:00,49.5,42.8,30.35,NNE,15,5.0,7.0,78,0.00,,,0.35,meteohub,2013-05-08 23:59:00,
2013-05-08 17:04:00,49.8,42.6,30.34,North,355,5.0,7.0,76,0.00,,,0.35,meteohub,2013-05-09 00:04:00,
2013-05-08 17:09:00,49.8,41.9,30.34,NNW,340,4.0,7.0,74,0.00,,,0.00,meteohub,2013-05-09 00:09:00,
2013-05-08 17:14:00,50.0,42.8,30.34,NNW,340,4.0,7.0,76,0.00,,,0.00,meteohub,2013-05-09 00:14:00,
2013-05-08 17:19:00,50.2,42.6,30.34,NNW,331,4.0,6.0,75,0.00,,,0.00,meteohub,2013-05-09 00:19:00,
2013-05-08 17:24:00,50.4,43.3,30.34,NE,38,3.0,6.0,77,0.00,,,0.00,meteohub,2013-05-09 00:24:00,
2013-05-08 17:29:00,50.5,42.3,30.34,NNE,15,3.0,6.0,73,0.00,,,0.00,meteohub,2013-05-09 00:29:00,
2013-05-08 17:34:00,50.7,40.5,30.34,North,0,5.0,5.0,68,0.00,,,0.00,meteohub,2013-05-09 00:34:00,
2013-05-08 17:39:00,50.7,42.1,30.34,North,0,4.0,6.0,72,0.00,,,0.00,meteohub,2013-05-09 00:39:00,
2013-05-08 17:44:00,50.9,41.9,30.34,NNE,27,4.0,6.0,71,0.00,,,0.00,meteohub,2013-05-09 00:44:00,
2013-05-08 17:49:00,50.9,41.9,30.34,NNE,32,4.0,6.0,71,0.00,,,0.00,meteohub,2013-05-09 00:49:00,
2013-05-08 17:54:00,51.1,41.2,30.34,NNE,22,3.0,6.0,69,0.00,,,0.00,meteohub,2013-05-09 00:54:00,
2013-05-08 17:59:00,51.3,40.6,30.34,NNE,22,3.0,5.0,67,0.00,,,0.00,meteohub,2013-05-09 00:59:00,
2013-05-08 18:04:00,51.4,41.2,30.33,North,0,3.0,5.0,68,0.00,,,0.00,meteohub,2013-05-09 01:04:00,
2013-05-08 18:09:00,51.4,40.5,30.33,NNE,28,3.0,5.0,66,0.00,,,0.00,meteohub,2013-05-09 01:09:00,
2013-05-08 18:14:00,51.4,41.2,30.33,NNE,22,1.0,3.0,68,0.00,,,0.00,meteohub,2013-05-09 01:14:00,
2013-05-08 18:19:00,51.4,42.8,30.33,NNE,30,2.0,3.0,72,0.00,,,0.00,meteohub,2013-05-09 01:19:00,
2013-05-08 18:24:00,51.3,41.9,30.33,NNE,29,2.0,3.0,70,0.00,,,0.00,meteohub,2013-05-09 01:24:00,
2013-05-08 18:29:00,51.3,41.0,30.33,NE,34,2.0,3.0,68,0.00,,,0.00,meteohub,2013-05-09 01:29:00,
2013-05-08 18:34:00,51.4,41.5,30.33,NE,43,0.0,3.0,69,0.00,,,0.00,meteohub,2013-05-09 01:34:00,
2013-05-08 18:39:00,51.6,42.4,30.33,NE,44,2.0,3.0,71,0.00,,,0.00,meteohub,2013-05-09 01:39:00,
2013-05-08 18:44:00,51.4,41.9,30.33,NE,44,1.0,3.0,70,0.00,,,0.00,meteohub,2013-05-09 01:44:00,
2013-05-08 18:49:00,51.4,43.2,30.33,NE,38,1.0,3.0,73,0.00,,,0.00,meteohub,2013-05-09 01:49:00,
2013-05-08 18:54:00,51.3,42.6,30.33,NE,38,2.0,3.0,72,0.00,,,0.00,meteohub,2013-05-09 01:54:00,
2013-05-08 18:59:00,51.1,42.4,30.33,NE,42,2.0,3.0,72,0.00,,,0.00,meteohub,2013-05-09 01:59:00,
2013-05-08 19:04:00,50.9,42.3,30.33,NE,42,0.0,4.0,72,0.00,,,0.00,meteohub,2013-05-09 02:04:00,
2013-05-08 19:09:00,50.9,41.5,30.34,NE,42,0.0,4.0,70,0.00,,,0.00,meteohub,2013-05-09 02:09:00,
2013-05-08 19:14:00,50.7,41.7,30.33,NE,42,0.0,4.0,71,0.00,,,0.00,meteohub,2013-05-09 02:14:00,
2013-05-08 19:19:00,50.7,42.1,30.34,ENE,57,0.0,2.0,72,0.00,,,0.00,meteohub,2013-05-09 02:19:00,
2013-05-08 19:24:00,50.7,40.1,30.34,NE,38,2.0,2.0,67,0.00,,,0.00,meteohub,2013-05-09 02:24:00,
2013-05-08 19:29:00,50.7,42.1,30.34,North,5,2.0,2.0,72,0.00,,,0.00,meteohub,2013-05-09 02:29:00,
2013-05-08 19:34:00,50.5,42.6,30.34,NNE,13,1.0,4.0,74,0.00,,,0.00,meteohub,2013-05-09 02:34:00,
2013-05-08 19:40:00,50.5,43.5,30.34,NE,44,2.0,4.0,77,0.00,,,0.00,meteohub,2013-05-09 02:40:00,
2013-05-08 19:45:00,50.4,42.8,30.34,East,93,0.0,4.0,75,0.00,,,0.00,meteohub,2013-05-09 02:45:00,
2013-05-08 19:50:00,49.6,42.4,30.35,SE,124,0.0,4.0,76,0.00,,,0.00,meteohub,2013-05-09 02:50:00,
2013-05-08 19:55:00,49.1,42.6,30.35,SSE,164,1.0,4.0,78,0.00,,,0.00,meteohub,2013-05-09 02:55:00,
2013-05-08 20:00:00,48.9,42.6,30.35,SSE,157,0.0,4.0,79,0.00,,,0.00,meteohub,2013-05-09 03:00:00,
2013-05-08 20:05:00,48.6,42.3,30.36,SSE,157,0.0,2.0,79,0.00,,,0.00,meteohub,2013-05-09 03:05:00,
2013-05-08 20:10:00,48.4,42.3,30.36,South,175,0.0,1.0,79,0.00,,,0.00,meteohub,2013-05-09 03:10:00,
2013-05-08 20:15:00,48.0,41.5,30.36,SSE,151,1.0,2.0,78,0.00,,,0.00,meteohub,2013-05-09 03:15:00,
2013-05-08 20:20:00,47.8,41.7,30.36,ESE,106,1.0,2.0,79,0.00,,,0.00,meteohub,2013-05-09 03:20:00,
2013-05-08 20:25:00,47.7,41.5,30.36,ESE,108,1.0,2.0,79,0.00,,,0.00,meteohub,2013-05-09 03:25:00,
2013-05-08 20:30:00,47.7,41.7,30.36,SSE,162,1.0,1.0,80,0.00,,,0.00,meteohub,2013-05-09 03:30:00,
2013-05-08 20:35:00,47.3,41.7,30.36,SSE,152,0.0,2.0,81,0.00,,,0.00,meteohub,2013-05-09 03:35:00,
2013-05-08 20:40:00,47.1,41.5,30.36,SSE,161,0.0,2.0,81,0.00,,,0.00,meteohub,2013-05-09 03:40:00,
2013-05-08 20:45:00,46.9,41.4,30.37,South,176,0.0,2.0,81,0.00,,,0.00,meteohub,2013-05-09 03:45:00,
2013-05-08 20:50:00,46.8,41.2,30.36,South,184,0.0,1.0,81,0.00,,,0.00,meteohub,2013-05-09 03:50:00,
2013-05-08 20:55:00,46.8,41.2,30.37,South,178,0.0,1.0,81,0.00,,,0.00,meteohub,2013-05-09 03:55:00,
2013-05-08 21:00:00,46.6,41.4,30.37,South,178,0.0,1.0,82,0.00,,,0.00,meteohub,2013-05-09 04:00:00,
2013-05-08 21:01:00,46.6,41.4,30.37,South,178,0.0,1.0,82,0.00,,,0.00,meteohub,2013-05-09 04:01:00,
2013-05-08 21:03:00,46.6,41.4,30.37,SSE,167,0.0,1.0,82,0.00,,,0.00,meteohub,2013-05-09 04:03:00,
2013-05-08 21:08:00,46.2,41.4,30.37,SSW,202,0.0,1.0,83,0.00,,,0.00,meteohub,2013-05-09 04:08:00,
2013-05-08 21:13:00,46.0,41.2,30.37,East,92,0.0,1.0,83,0.00,,,0.00,meteohub,2013-05-09 04:13:00,
2013-05-08 21:18:00,46.0,41.5,30.37,South,173,0.0,2.0,84,0.00,,,0.00,meteohub,2013-05-09 04:18:00,
2013-05-08 21:23:00,45.9,41.4,30.38,SE,136,0.0,2.0,84,0.00,,,0.00,meteohub,2013-05-09 04:23:00,
2013-05-08 21:28:00,45.9,41.4,30.38,SSE,167,0.0,2.0,84,0.00,,,0.00,meteohub,2013-05-09 04:28:00,
2013-05-08 21:33:00,45.7,41.2,30.38,East,100,0.0,2.0,84,0.00,,,0.00,meteohub,2013-05-09 04:33:00,
2013-05-08 21:38:00,45.7,41.2,30.38,East,100,0.0,2.0,84,0.00,,,0.00,meteohub,2013-05-09 04:38:00,
2013-05-08 21:43:00,45.5,41.0,30.38,SSE,153,1.0,2.0,84,0.00,,,0.00,meteohub,2013-05-09 04:43:00,
2013-05-08 21:48:00,45.1,40.6,30.38,SSE,163,0.0,1.0,84,0.00,,,0.00,meteohub,2013-05-09 04:48:00,
2013-05-08 21:53:00,45.0,40.5,30.38,SSE,163,0.0,2.0,84,0.00,,,0.00,meteohub,2013-05-09 04:53:00,
2013-05-08 21:58:00,44.8,40.5,30.38,SSE,163,0.0,2.0,85,0.00,,,0.00,meteohub,2013-05-09 04:58:00,
2013-05-08 22:03:00,44.6,40.5,30.38,SSE,163,0.0,1.0,85,0.00,,,0.00,meteohub,2013-05-09 05:03:00,
2013-05-08 22:08:00,44.4,40.5,30.39,SSE,163,0.0,0.0,86,0.00,,,0.00,meteohub,2013-05-09 05:08:00,
2013-05-08 22:13:00,44.4,40.5,30.39,SE,144,0.0,0.0,86,0.00,,,0.00,meteohub,2013-05-09 05:13:00,
2013-05-08 22:18:00,44.6,40.6,30.39,SE,144,0.0,0.0,86,0.00,,,0.00,meteohub,2013-05-09 05:18:00,
2013-05-08 22:23:00,44.8,40.8,30.40,SE,144,0.0,1.0,86,0.00,,,0.00,meteohub,2013-05-09 05:23:00,
2013-05-08 22:28:00,45.0,41.0,30.40,SE,144,0.0,1.0,86,0.00,,,0.00,meteohub,2013-05-09 05:28:00,
2013-05-08 22:33:00,45.0,41.0,30.40,SSE,150,0.0,1.0,86,0.00,,,0.00,meteohub,2013-05-09 05:33:00,
2013-05-08 22:38:00,45.1,40.8,30.40,South,169,0.0,1.0,85,0.00,,,0.00,meteohub,2013-05-09 05:38:00,
2013-05-08 22:43:00,45.1,40.8,30.40,South,169,0.0,1.0,85,0.00,,,0.00,meteohub,2013-05-09 05:43:00,
2013-05-08 22:48:00,45.3,41.0,30.40,SE,146,0.0,0.0,85,0.00,,,0.00,meteohub,2013-05-09 05:48:00,
2013-05-08 22:53:00,45.3,41.4,30.40,ESE,116,0.0,0.0,86,0.00,,,0.00,meteohub,2013-05-09 05:53:00,
2013-05-08 22:58:00,45.3,41.0,30.40,ESE,115,0.0,1.0,85,0.00,,,0.00,meteohub,2013-05-09 05:58:00,
2013-05-08 23:03:00,45.1,40.8,30.40,SSE,149,0.0,1.0,85,0.00,,,0.00,meteohub,2013-05-09 06:03:00,
2013-05-08 23:08:00,45.1,40.8,30.40,SSE,149,0.0,1.0,85,0.00,,,0.00,meteohub,2013-05-09 06:08:00,
2013-05-08 23:13:00,45.1,41.2,30.40,ESE,110,0.0,1.0,86,0.00,,,0.00,meteohub,2013-05-09 06:13:00,
2013-05-08 23:18:00,45.0,40.6,30.40,SSW,200,0.0,0.0,85,0.00,,,0.00,meteohub,2013-05-09 06:18:00,
2013-05-08 23:23:00,45.0,40.6,30.40,ESE,110,0.0,1.0,85,0.00,,,0.00,meteohub,2013-05-09 06:23:00,
2013-05-08 23:28:00,45.0,40.6,30.40,SE,140,0.0,2.0,85,0.00,,,0.00,meteohub,2013-05-09 06:28:00,
2013-05-08 23:33:00,45.0,40.6,30.40,SSE,156,0.0,2.0,85,0.00,,,0.00,meteohub,2013-05-09 06:33:00,
2013-05-08 23:38:00,45.1,41.2,30.40,ESE,113,0.0,2.0,86,0.00,,,0.00,meteohub,2013-05-09 06:38:00,
2013-05-08 23:43:00,45.1,40.8,30.40,SE,144,0.0,2.0,85,0.00,,,0.00,meteohub,2013-05-09 06:43:00,
2013-05-08 23:48:00,45.3,41.0,30.40,SE,144,1.0,2.0,85,0.00,,,0.00,meteohub,2013-05-09 06:48:00,
2013-05-08 23:53:00,45.7,41.7,30.40,ESE,120,0.0,2.0,86,0.00,,,0.00,meteohub,2013-05-09 06:53:00,
2013-05-08 23:58:00,45.7,41.4,30.40,ESE,120,0.0,1.0,85,0.00,,,0.00,meteohub,2013-05-09 06:58:00,